User: anonymous   Login
Location: Unspecified
(0.0000°N, 0.0000°E)
Time: 05:48:47
(UTC+00:00)
Language:

BEESAT 3 - Orbit

View from above orbital plane
View from above orbital plane
View from above satellite
View from above satellite

Ground track
Ground track

The orbit data is extracted from the following two-line orbital elements,

1 39134U 13015E   19083.10635198  .00000880  00000-0  50022-4 0  9993
2 39134  64.8629 300.9086 0022650 315.9237  44.0083 15.19917854327436
Epoch (UTC): 24 March 2019 02:33:08
Eccentricity: 0.0022650
inclination: 64.8629°
perigee height: 490 km
apogee height: 521 km
right ascension of ascending node: 300.9086°
argument of perigee: 315.9237°
revolutions per day: 15.19917854
mean anomaly at epoch: 44.0083°
orbit number at epoch: 32743

The dashed part of the orbit path shows where the satellite is in the earth's shadow,  

DLR